This is the latest recevied weather packets stored in our database for station/object EA3DJ-10. If no packets are shown the sender has not sent any weather packets the latest 10 day(s).
| Time | Temp. | Humidity | Pressure | Rain* | Wind** | Luminosity | Snow |
|---|---|---|---|---|---|---|---|
| 1788490854 | 27.78° C | 56% | 1021.7 hPa | - | - | - | - |
| 1788489654 | 27.78° C | 56% | 1021.8 hPa | - | - | - | - |
| 1788488454 | 27.78° C | 55% | 1021.9 hPa | - | - | - | - |
| 1788487253 | 27.22° C | 55% | 1022 hPa | - | - | - | - |
| 1788486053 | 27.22° C | 55% | 1022.1 hPa | - | - | - | - |
| 1788484853 | 27.22° C | 55% | 1022.2 hPa | - | - | - | - |
| 1788483653 | 27.22° C | 55% | 1022.5 hPa | - | - | - | - |
| 1788482453 | 27.22° C | 55% | 1022.6 hPa | - | - | - | - |
| 1788481253 | 27.22° C | 54% | 1022.8 hPa | - | - | - | - |
| 1788480053 | 27.22° C | 53% | 1023 hPa | - | - | - | - |
| 1788478853 | 26.67° C | 53% | 1023.2 hPa | - | - | - | - |
| 1788477653 | 26.67° C | 51% | 1023.2 hPa | - | - | - | - |
| 1788476447 | 26.67° C | 48% | 1023.2 hPa | - | - | - | - |
| 1788475247 | 26.11° C | 47% | 1023.1 hPa | - | - | - | - |
| 1788474047 | 26.11° C | 45% | 1023 hPa | - | - | - | - |
| 1788472847 | 23.89° C | 45% | 1023.1 hPa | - | - | - | - |
| 1788471647 | 24.44° C | 49% | 1023.2 hPa | - | - | - | - |
| 1788470447 | 26.67° C | 55% | 1023.1 hPa | - | - | - | - |
| 1788469246 | 27.22° C | 52% | 1023.2 hPa | - | - | - | - |
| 1788468046 | 27.22° C | 52% | 1023.2 hPa | - | - | - | - |
| 1788466846 | 27.22° C | 52% | 1023.1 hPa | - | - | - | - |
| 1788465646 | 26.67° C | 52% | 1023.1 hPa | - | - | - | - |
| 1788464446 | 26.67° C | 53% | 1023.1 hPa | - | - | - | - |
| 1788463246 | 26.67° C | 54% | 1022.9 hPa | - | - | - | - |
| 1788462046 | 26.11° C | 56% | 1022.7 hPa | - | - | - | - |
* Rain since midnight (hover to see other rain measurements)
** Current wind speed in m/s (hover to see current wind gust speed)